Regional Weather Roundup
Issued by NWS

Home | Current Version | Previous Version | Text Only | Print | Product List | Glossary On
Versions: 1 2 3 4 5 6 7 8 9 10 11 12 13 14 15 16 17 18 19 20 21 22 23 24 25 26 27 28 29 30 31 32 33 34 35 36 37 38 39 40 41 42 43 44 45 46 47 48 49 50
000
ASUS44 KJAN 250420
RWRMS

MISSISSIPPI HOURLY WEATHER ROUNDUP
NATIONAL WEATHER SERVICE JACKSON MS
1100 PM CDT SUN JUL 24 2016

NOTE: "FAIR: INDICATES FEW OR NO CLOUDS BELOW 12,000 FEET WITH NO
SIGNIFICANT WEATHER AND/OR OBSTRUCTIONS TO VISIBILITY.

MSZ001>002-007>008-010>013-018>021-025>028-034>036-250500-
NORTHWEST MISSISSIPPI

CITY           SKY/WX    TMP DP  RH WIND       PRES   REMARKS
CLEVELAND      FAIR      77  77 100 E3        29.96S
GREENWOOD      MOCLDY    79  73  82 SE5       29.96F
GREENVILLE     PTCLDY    77  73  87 S5        29.95F
OXFORD         FAIR      75  75 100 E5        30.01S
WINONA         FAIR      74  74 100 CALM      29.98F
$$

MSZ003>006-009-014>017-022>024-029>033-037>039-250500-
NORTHEAST MISSISSIPPI

CITY           SKY/WX    TMP DP  RH WIND       PRES   REMARKS
ABERDEEN       FAIR      79  61  53 S5        30.00F
COLUMBUS AFB   CLEAR     78  76  96 CALM      29.99S
GOLDN TRIANGLE MOCLDY    79  70  73 NE5       29.99S
TUPELO         CLOUDY    81  76  84 CALM      29.99F
$$

MSZ040-058-250500-
CENTRAL MISSISSIPPI

CITY           SKY/WX    TMP DP  RH WIND       PRES   REMARKS
JACKSON INTL   CLOUDY    77  74  90 S3        29.99F
JACKSON HAWKNS MOCLDY    77  74  90 CALM      30.00R
MADISON        FAIR      77  72  83 CALM      29.99F
MERIDIAN KEY   PTCLDY    79  75  87 CALM      30.00F
MERIDIAN NAS   CLEAR     79  69  71 SE3       30.01F
VICKSBURG VKS  PTCLDY    77  75  94 CALM      29.98F
$$

MSZ059>079-250500-
SOUTH MISSISSIPPI

CITY           SKY/WX    TMP DP  RH WIND       PRES   REMARKS
COLUMBIA       FAIR      75  73  94 CALM      30.03S
HATTIESBURG    MOCLDY    75  74  96 NW3       30.00R
MCCOMB         CLOUDY    75  73  93 CALM      30.00S
NATCHEZ        MOCLDY    77  72  83 SE5       29.99F
PINE BELT      PTCLDY    75  72  88 CALM      30.01F
$$

MSZ080>082-250500-
COASTAL MISSISSIPPI

CITY           SKY/WX    TMP DP  RH WIND       PRES   REMARKS
BILOXI         PTCLDY    83  78  86 E5        29.97S HX  93
PASCAGOULA     MOCLDY    79  78  97 E3        29.98F
GULFPORT       CLOUDY    81  77  88 CALM      29.97F
$$

LAZ007>009-015>016-023>026-250500-
NORTHEAST LOUISIANA

CITY           SKY/WX    TMP DP  RH WIND       PRES   REMARKS
BASTROP        FAIR      74  73  98 CALM      29.99S FOG
TALLULAH/VBURG MOCLDY    78  75  90 CALM      29.97F
VIDALIA        FAIR      79  74  84 SE5       30.01F
$$




USA.gov is the U.S. government's official web portal to all federal, state and local government web resources and services.